Probability
0 0 0 0 0 0 0 0 0 0 0 0 0 0 0 0 0 0 0 0 0 0 0 0 0 0 0 0 0 0 0 0 0 0 0 0 0 0 0 0 0 0 0 0
0 0 0 0 0 0 0 0 0 0 0 0 0 0 0 0 0 0 0 0 0 0 0 0 0 0 0 0 0 0 0 0 0 0 0 0 0 0 0 0 0 0 0 0
0 0 0 0 0 0 0 0 0 0 0 0 0 0 0 0 0 0 0 0 0 0 0 0 0 0 0 0 0 0 0 0 0 0 0 0 0 0 0 0 0 0 0 0
0 0 0 0 0 0 0 0 0 0 0 0 0 0 0 0 0 0 0 0 0 0 0 0 0 0 0 0 0 0 0 0 0 0 0 0 0 0 0 0 0 0 0 0
0 0 0 0 0 0 0 0 0 0 0 0 0 0 0 0 0 0 0 0 0 0 0 0 0 0 0 0 0 0 0 0 0 0 0 0 0 0 0 0 0 0 0 0
0 0 0 0 0 0 0 0 0 0 0 0 0 0 0 0 0 0 0 0 0 0 0 0 0 0 0 0 0 0 0 0 0 0 0 0 0 0 0 0 0 0 0 0
0 0 0 0 0 0 0 0 0 0 0 0 0 0 0 0 0 0 0 0 0 0 0 0 0 0 0 0 0 0 0 0 0 0 0 0 0 0 0 0 0 0 0 0
0 0 0 0 0 0 0 0 0 0 0 0 0 0 0 0 0 0 0 0 0 0 0 0 0 0 0 0 0 0 0 0 0 0 0 0 0 0 0 0 0 0 0 0
0 0 0 0 0 0 0 0 0 0 0 0 0 0 0 0 0 0 0 0 0 0 0 0 0 0 0 0 0 0 0 0 0 0 0 0 0 0 0 0 0 0 0 0
0 0 0 0 0 0 0 0 0 0 0 0 0 0 0 0 0 0 0 0 0 0 0 0 0 0 0 0 0 0 0 0 0 0 0 0 0 0 0 0 0 0 0 0
0 0 0 0 0 0 0 0 0 0 0 0 0 0 0 0 0 0 0 0 0 0 0 0 0 0 0 0 0 0 0 0 0 0 0 0 0 0 0 0 0 0 0 0
0 0 0 0 0 0 0 0 0 0 0 0 0 0 0 0 0 0 0 0 0 0 0 0 0 0 0 0 0 0 0 0 0 0 0 0 0 0 0 0 0 0 0 0
0 0 0 0 0 0 0 0 0 0 0 0 0 0 0 0 0 0 0 0 0 0 0 1 1 1 0 0 0 0 0 0 0 0 0 0 0 0 0 0 0 0 0 0
0 0 0 0 0 0 0 0 0 0 0 0 0 0 0 0 0 0 0 0 0 0 0 1 2 2 0 0 0 0 0 0 0 0 0 0 0 0 0 0 0 0 0 0
0 0 0 0 0 0 0 0 0 0 0 0 0 0 0 0 0 0 0 0 0 0 0 1 1 1 0 0 0 0 0 0 0 0 0 0 0 0 0 0 0 0 0 0
0 0 0 0 0 0 0 0 0 0 0 0 0 0 0 0 0 0 0 0 0 0 0 0 0 0 0 0 0 0 0 0 0 0 0 0 0 0 0 0 0 0 0 0
0 0 0 0 0 0 0 0 0 0 0 0 0 0 0 0 0 0 0 0 0 0 0 0 0 0 0 0 0 0 0 0 0 0 0 0 0 0 0 0 0 0 0 0
0 0 0 0 0 0 0 0 0 0 0 0 0 0 0 0 0 0 0 0 0 0 0 0 0 0 0 0 0 0 0 0 0 0 0 0 0 0 0 0 0 0 0 0
0 0 0 0 0 0 0 0 0 0 0 0 0 0 0 0 0 0 0 0 0 0 0 0 0 0 0 0 0 0 0 0 0 0 0 0 0 0 0 0 0 0 0 0
0 0 0 0 0 0 0 0 0 0 0 0 0 0 0 0 0 0 0 0 0 0 0 0 0 0 0 0 0 0 0 0 0 0 0 0 0 0 0 0 0 0 0 0
0 0 0 0 0 0 0 0 0 0 0 0 0 0 0 0 0 0 0 0 0 0 0 0 0 0 0 0 0 0 0 0 0 0 0 0 0 0 0 0 0 0 0 0
0 0 0 0 0 0 0 0 0 0 0 0 0 0 0 0 0 0 0 0 0 0 0 0 0 0 0 0 0 0 0 0 0 0 0 0 0 0 0 0 0 0 0 0
0 0 0 0 0 0 0 0 0 0 0 0 0 0 0 0 0 0 0 0 0 0 0 0 0 0 0 0 0 0 0 0 0 0 0 0 0 0 0 0 0 0 0 0
0 0 0 0 0 0 0 0 0 0 0 0 0 0 0 0 0 0 0 0 0 0 0 0 0 0 0 0 0 0 0 0 0 0 0 0 0 0 0 0 0 0 0 0
0 0 0 0 0 0 0 0 0 0 0 0 0 0 0 0 0 0 0 0 0 0 0 0 0 0 0 0 0 0 0 0 0 0 0 0 0 0 0 0 0 0 0 0
0 0 0 0 0 0 0 0 0 0 0 0 0 0 0 0 0 0 0 0 0 0 0 0 0 0 0 0 0 0 0 0 0 0 0 0 0 0 0 0 0 0 0 0
Wind_Speed
10 8 8 9 8 7 5 6 5 2 4 6 7 8 6 8 8 8 8 8 9 9 9 8 8 6 5 4 3 4 2 3 2 2 2 2 1 2 1 1 2 2 3 3
8 10 11 9 8 8 7 8 7 2 2 5 7 8 7 7 9 8 7 8 8 9 10 10 8 7 4 4 3 3 3 3 3 2 1 1 1 2 1 1 1 3 3 3
8 7 9 9 8 8 9 6 5 4 7 9 8 8 7 6 7 7 6 5 5 7 10 12 9 8 5 4 4 2 3 3 3 2 1 2 1 2 1 1 1 2 2 2
4 3 6 7 6 6 4 4 5 6 6 6 6 5 4 6 7 7 6 5 4 5 7 9 8 7 6 5 4 3 3 3 3 2 2 2 2 1 2 2 1 2 1 2
3 4 6 5 3 4 1 3 7 8 8 9 9 7 2 8 7 8 8 7 5 5 7 8 8 7 6 6 4 2 3 3 4 2 1 2 2 2 2 2 2 2 1 1
3 4 3 2 2 2 2 6 9 9 7 8 5 3 2 2 4 5 7 7 7 6 7 7 8 7 6 6 5 3 3 4 3 1 1 1 1 2 2 3 2 2 1 1
5 5 3 1 3 4 5 6 4 3 3 2 1 2 1 5 6 4 4 5 6 7 7 7 8 7 6 7 5 4 4 3 3 2 1 1 1 1 1 2 2 2 2 2
4 5 6 4 4 2 5 6 2 3 5 5 4 3 5 8 6 5 3 3 4 6 6 7 8 8 7 7 6 4 4 3 3 2 1 1 1 0 1 1 2 2 2 1
1 3 6 4 3 4 5 4 3 5 9 7 4 2 7 7 6 5 4 4 4 5 6 7 8 8 8 7 6 5 5 4 4 2 1 1 1 1 1 1 1 1 2 2
2 3 6 5 4 6 6 6 4 3 5 5 5 3 4 6 4 4 5 5 5 5 6 7 8 8 8 7 6 6 5 4 4 3 2 2 1 1 0 1 2 2 2 2
5 2 4 7 6 6 6 6 5 4 5 5 5 3 4 4 3 2 2 5 6 7 7 7 7 7 7 7 7 6 6 5 4 3 2 2 1 0 1 0 0 1 1 1
5 4 4 7 4 1 4 6 5 4 5 6 5 2 3 4 3 2 2 3 4 6 7 7 8 8 7 7 7 7 6 5 5 3 3 3 2 2 1 0 0 1 1 1
8 5 4 1 1 3 5 5 5 5 6 7 7 3 2 2 2 3 3 4 5 6 7 7 7 8 8 7 7 7 6 6 5 4 3 3 3 2 1 0 0 1 1 1
4 7 7 7 6 5 6 6 6 7 6 8 9 9 5 4 3 2 3 5 6 7 8 8 8 8 8 8 7 7 7 6 7 5 4 3 3 3 2 1 0 1 2 2
5 8 9 10 10 10 10 10 9 10 10 11 11 11 9 6 5 3 3 3 5 7 8 9 9 8 8 8 8 7 7 7 7 7 5 4 3 3 3 2 1 0 1 2
6 9 11 12 12 12 13 12 12 11 11 12 12 11 7 6 4 3 3 3 4 6 8 9 10 10 10 10 9 8 8 8 7 7 6 5 3 3 3 2 2 1 1 1
9 12 12 11 12 13 11 8 8 8 8 8 9 8 7 6 5 4 2 2 3 4 6 8 9 10 10 11 10 9 9 8 8 7 7 6 5 4 3 3 2 2 2 1
12 12 8 10 12 13 6 3 4 6 7 7 6 6 7 6 5 1 1 1 2 3 4 6 8 9 10 10 10 9 9 8 8 8 7 7 6 5 4 3 3 3 2 2
10 9 8 9 11 11 7 4 4 4 6 7 7 7 8 8 5 1 3 2 2 2 3 4 6 7 9 9 10 10 10 9 8 8 8 8 7 6 5 5 4 3 2 2
4 6 7 8 10 11 6 5 4 4 3 8 8 9 9 9 5 5 7 3 3 1 1 2 4 5 7 8 9 10 10 10 9 8 8 8 7 7 6 5 4 3 3 3
5 6 7 9 11 7 5 6 5 3 6 9 10 10 10 8 7 8 8 5 4 2 1 2 3 4 5 7 9 9 9 10 9 9 8 7 7 7 6 5 3 3 3 3
10 7 8 8 9 4 7 6 6 7 9 10 11 10 10 10 9 9 8 6 5 3 1 2 3 3 4 6 8 8 8 8 9 9 8 7 7 6 6 5 4 3 3 3
7 7 6 7 6 5 6 6 7 9 11 11 11 11 11 11 10 10 9 7 4 3 2 2 3 4 4 6 7 8 7 8 9 9 8 7 7 6 5 5 4 3 3 2
11 11 11 12 10 10 9 10 10 11 11 12 11 12 12 12 12 11 9 8 6 4 3 3 4 5 5 6 7 7 7 9 10 10 9 8 7 6 5 4 3 3 2 2
12 12 13 15 12 12 10 12 14 14 14 13 12 12 12 12 12 11 10 9 7 5 4 4 5 6 6 6 7 7 8 10 10 10 9 8 7 7 6 5 3 3 3 2
11 12 11 10 11 11 12 13 15 15 14 14 14 13 12 12 12 12 11 9 8 8 6 5 6 6 7 7 7 8 9 10 11 10 9 7 6 6 7 7 5 8 6 8
Wind_Direction
182 194 200 206 206 221 264 279 281 240 199 235 256 262 230 197 192 203 203 202 194 183 165 147 141 139 142 137 117 114 114 102 84 58 3 358 347 324 1 354 22 338 340 345
183 207 201 198 197 222 249 268 276 310 266 261 268 268 244 201 195 202 211 209 199 173 158 144 151 147 158 143 130 126 106 90 88 85 349 305 349 321 350 331 356 346 351 345
191 207 196 189 201 218 240 261 300 322 291 273 273 270 244 189 187 184 204 222 208 174 164 156 159 151 158 150 142 128 114 118 105 101 43 1 348 301 342 348 24 339 338 345
207 212 190 199 207 227 258 306 299 293 289 299 287 292 264 167 170 184 186 202 213 171 153 148 152 154 160 151 139 143 127 112 102 93 67 333 303 1 1 349 10 311 1 7
167 198 198 205 214 235 264 283 288 284 282 284 275 274 263 150 172 184 180 187 190 166 151 148 151 153 154 138 131 131 119 107 95 85 113 287 352 7 352 343 5 334 27 1
145 187 198 198 204 250 279 274 266 255 262 268 267 275 317 130 138 149 157 168 169 161 150 148 144 139 133 122 124 128 123 111 111 135 193 200 30 1 340 351 2 330 332 354
169 162 149 190 202 200 247 276 301 293 241 280 341 265 160 99 92 101 131 154 152 150 152 150 144 141 138 136 142 152 149 139 142 188 216 134 85 335 346 0 342 325 349 8
162 156 166 197 240 243 242 256 273 316 317 312 273 232 112 110 100 99 107 117 134 147 153 154 149 146 147 150 156 166 158 153 154 198 194 131 123 294 23 10 325 343 2 354
328 126 144 176 254 285 272 268 289 285 288 286 277 126 119 121 129 143 157 154 167 160 153 151 150 151 154 159 162 169 163 168 162 187 174 123 105 87 35 323 322 354 344 358
313 133 168 168 230 239 279 309 310 287 305 309 315 340 99 125 134 156 179 181 181 167 160 157 154 157 159 162 163 167 168 169 161 175 192 142 110 92 46 326 18 0 351 9
307 267 177 180 218 235 218 250 269 281 280 297 319 355 61 103 106 149 194 184 179 169 164 161 156 159 159 158 162 169 173 172 160 170 179 140 150 182 239 205 56 308 321 351
328 307 249 214 197 248 287 289 293 296 307 312 303 316 93 115 130 165 193 184 171 161 159 158 158 160 162 167 173 176 177 169 158 168 169 165 168 174 238 214 144 301 325 337
345 310 309 309 161 207 246 251 267 285 288 284 286 285 144 150 172 191 192 182 174 164 163 162 161 166 169 174 178 177 174 164 155 163 176 184 173 169 194 214 235 301 323 327
299 290 295 292 298 296 278 275 267 266 273 281 287 297 302 315 313 285 221 192 181 176 174 171 169 172 174 177 181 180 174 164 163 167 182 193 183 167 176 173 207 311 328 339
273 285 294 297 297 294 286 284 276 267 269 277 289 296 305 311 304 282 252 214 192 186 184 179 176 179 178 180 183 182 176 171 171 169 180 190 189 169 166 162 170 223 332 342
287 292 297 293 292 292 284 276 267 264 265 270 278 283 296 303 306 295 260 234 209 197 196 190 184 184 184 185 186 184 178 176 174 174 178 176 184 168 166 174 179 193 205 306
294 297 301 298 302 294 281 282 281 280 284 285 287 300 315 312 306 299 285 239 226 215 206 198 192 188 187 189 186 182 179 176 177 177 175 173 181 176 175 185 181 193 193 215
270 282 287 291 293 284 294 304 291 292 293 300 306 325 331 317 305 325 336 288 237 227 216 202 196 188 184 186 180 174 171 174 179 179 174 172 175 177 177 184 193 203 205 195
247 264 274 279 283 285 294 316 337 324 321 348 345 353 352 345 326 343 5 342 293 245 227 211 200 188 182 183 176 171 173 177 180 179 176 174 175 178 180 187 194 197 211 217
252 255 261 272 283 288 320 6 2 309 323 14 7 6 359 356 345 343 351 347 325 297 239 219 201 192 183 179 171 173 178 180 182 178 178 177 173 171 179 188 190 187 197 211
278 263 253 267 274 284 7 11 343 321 11 11 9 7 4 354 343 336 342 345 327 316 270 230 207 198 187 173 167 178 183 187 179 170 171 168 163 168 176 181 182 193 198 197
303 297 288 281 277 295 29 10 9 357 358 3 359 357 352 342 337 337 336 332 320 311 269 231 224 210 191 175 172 183 191 181 161 156 160 164 166 175 175 169 183 196 186 193
289 300 310 305 318 350 5 8 3 357 350 352 351 348 343 336 332 330 325 319 305 289 266 234 232 221 203 189 182 190 187 163 153 155 163 168 169 170 161 163 176 186 186 194
302 320 312 305 310 328 340 350 355 354 345 342 341 338 336 331 327 325 322 317 305 281 259 235 227 222 216 203 194 195 175 162 159 163 168 171 174 167 158 154 161 161 168 181
308 310 301 297 311 322 337 349 348 343 339 335 332 328 327 324 321 320 316 313 309 295 273 241 230 226 222 212 203 193 177 169 171 172 174 176 172 160 149 122 84 110 83 105
282 292 293 298 322 320 324 336 339 335 334 332 329 326 324 322 318 316 312 311 307 301 286 268 243 232 227 219 210 195 185 178 180 181 179 173 164 154 145 133 107 64 87 89